Regional Weather Roundup
Issued by NWS

Home | Current Version | Previous Version | Graphics & Text | Print | Product List | Glossary On
Versions: 1 2 3 4 5 6 7 8 9 10 11 12 13 14 15 16 17 18 19 20 21 22 23 24 25 26 27 28 29 30 31 32 33 34 35 36 37 38 39 40 41 42 43 44 45 46 47 48 49 50
440
ASUS43 KDMX 191006
RWRIA

WEATHER ROUNDUP FOR IOWA
NATIONAL WEATHER SERVICE DES MOINES IA
500 AM CDT TUE SEP 19 2017

NOTE: "FAIR" INDICATES FEW OR NO CLOUDS BELOW 12,000 FEET WITH NO
SIGNIFICANT WEATHER AND/OR OBSTRUCTIONS TO VISIBILITY.

* - THESE STATIONS ARE NOT NWS STATIONS...THUS NOT UNDER NWS
QUALITY CONTROL.  THEY ALSO DO NOT REPORT WEATHER SUCH
AS PRECIPITATION OR FOG.

IAZ001>003-012>014-020>022-031>034-043>046-191100-
   NORTHWEST IOWA

CITY           SKY/WX    TMP DP  RH WIND       PRES   REMARKS
CARROLL *      CLOUDY    64  64 100 SE5       29.87F FOG
CHEROKEE *     CLOUDY    65  65 100 S8        29.85F FOG
DENISON *      CLOUDY    66  66 100 S9G15     29.87S FOG
LE MARS *      CLOUDY    66  66 100 SE8       29.82F FOG
ORANGE CITY *  CLOUDY    66  66 100 SE8       29.84S FOG
SHELDON *      CLOUDY    64  64 100 SE10G16   29.83F FOG
SIOUX CITY     FOG       65  65 100 SE10      29.81F VSB 1
SPENCER        CLOUDY    66  64  93 SE10      29.86F
STORM LAKE *   FOG       64  64 100 S9        29.87S VSB 1/2
$$

IAZ055>058-069>071-079>083-090>094-191100-
   SOUTHWEST IOWA

CITY           SKY/WX    TMP DP  RH WIND       PRES   REMARKS
ATLANTIC *     MOCLDY    64  64 100 CALM      29.86F
AUDUBON *      PTCLDY    63  61  94 CALM      29.88F FOG
CLARINDA *     MOCLDY    66  66 100 CALM      29.88F
COUNCIL BLFS * CLOUDY    66  66 100 SE10      29.84F FOG
CRESTON *      CLEAR     63 N/A N/A SE7       29.90F FOG
HARLAN  *      MOCLDY    64  64 100 SE5       29.89F FOG
LAMONI         FOG       63  63 100 SE5       29.90S VSB 1/4
RED OAK *      MOCLDY    66  64  94 S6        29.86F
SHENANDOAH *   CLOUDY    66  66 100 VRB5      29.86S FOG
$$

IAZ047>049-059>061-072>074-084-191100-
   CENTRAL IOWA

CITY           SKY/WX    TMP DP  RH WIND       PRES   REMARKS
AMES           FOG       63  63 100 CALM      29.90F VSB 1/4
ANKENY *       FOG       63  63 100 S5        29.91S VSB<1/4
BOONE *        CLOUDY    64  64 100 SE5       29.90F FOG
CHARITON *     FOG       63  63 100 SE5       29.91S VSB<1/4
DES MOINES     FOG       64  64 100 SE8       29.89F VSB 1/8
GRINNELL*      FOG       58  57  97 CALM      29.93F VSB 1/4
KNOXVILLE *    FOG       61  61 100 SE3       29.90F VSB<1/4
MARSHALLTOWN   FOG       59  59 100 SE5       29.92S VSB 1/2
NEWTON *       FOG       57  57 100 E5        29.92S VSB<1/4
PELLA *        FOG       62  61  97 CALM      29.93S VSB 1/4
PERRY *        CLOUDY    64  64  98 SE5       29.89F FOG
$$

IAZ004>006-015-016-023>025-035-036-191100-
   NORTH CENTRAL IOWA

CITY           SKY/WX    TMP DP  RH WIND       PRES   REMARKS
ALGONA *       CLOUDY    64  64 100 S8        29.89F FOG
CLARION *      FOG       63  63 100 SE6       29.91S VSB 1/4
ESTHERVILLE    CLOUDY    63  63 100 S10       29.87F FOG
FORT DODGE *   CLOUDY    65  63  93 SE5       29.89F
MASON CITY     FOG       61  60  97 SE5       29.93S VSB 1/2
FOREST CITY *  CLOUDY    63  63 100 SE3       29.91S FOG
WEBSTER CITY * FOG       63  63 100 SE6       29.89S VSB 1/4
IOWA FALLS *   FOG       61  61 100 CALM      29.93S VSB 1/4
$$

IAZ007>011-017>019-026>030-037>042-050>054-066-191100-
   NORTHEAST IOWA

CITY           SKY/WX    TMP DP  RH WIND       PRES   REMARKS
CEDAR RAPIDS   FOG       59  59 100 NE3       29.93S VSB<1/4
CHARLES CITY * MOCLDY    55  55 100 E6        29.94R
CLINTON *      CLOUDY    61  60  97 E5        29.96S
DECORAH *      CLEAR     57  55  94 SE6       29.93F
DUBUQUE        CLEAR     58  56  93 CALM      29.96S
MONTICELLO *   FOG       57  57 100 CALM      29.94S VSB 1
OELWEIN *      MOCLDY    55  55 100 SE6       29.94F FOG
WATERLOO       CLEAR     52  52 100 CALM      29.92F
$$

IAZ064-065-067-068-078-191100-
   EAST CENTRAL IOWA

CITY           SKY/WX    TMP DP  RH WIND       PRES   REMARKS
DAVENPORT      CLOUDY    61  61 100 E7        29.96S FOG
IOWA CITY      FOG       64  63  96 CALM      29.95R VSB 1/4
MUSCATINE *    FOG       64  63  94 CALM      29.94R VSB<1/4
QUAD CITIES    CLOUDY    64  61  90 E7        29.94S FOG
$$

IAZ062-063-075>077-085>089-095>099-191100-
   SOUTHEAST IOWA

CITY           SKY/WX    TMP DP  RH WIND       PRES   REMARKS
BURLINGTON     FOG       64  64 100 SW5       29.93S VSB 1/4
FAIRFIELD *    FOG       64  64 100 CALM      29.93S VSB<1/4
FORT MADISON * FOG       66  66 100 CALM      29.95R VSB 1/4
KEOKUK *       CLOUDY    66  66 100 CALM      29.93S FOG
OSKALOOSA *    FOG       60  59  99 CALM      29.92F VSB 1/2
OTTUMWA        CLOUDY    62  62 100 E3        29.92F FOG
WASHINGTON *   FOG       59  59 100 CALM      29.94S VSB<1/4
$$

ABBREVIATIONS USED IN REMARKS
   TC - TEMPERATURES IN CELSIUS
  WCI - WIND CHILL INDEX
   HX - HEAT INDEX
  VSB - VISIBILITY
$$





USA.gov is the U.S. government's official web portal to all federal, state and local government web resources and services.